Flag for Norway Weather past 2 weeks in Stavanger, Norway

Now
28 °F

Passing clouds.


Feels Like: 28 °F
Forecast: 28 / 41 °F
Wind: 1 mph from South

Location: Stavanger / Sola

Current Time: Dec 25, 2014 at 8:28:12 AM

Latest Report: Dec 25, 2014 at 7:50 AM


Visibility: N/A

Pressure: 29.98 "Hg

Humidity: 93%

Dew point: 27 °F

Location of StavangerLocation

Historic Weather in Stavanger — Graph

°F

Stavanger temperature yesterday

Maximum temperature yesterday: 45 °F (at 12:50 AM)
Minimum temperature yesterday: 32 °F (at 10:50 PM)
Average temperature yesterday: 38 °F

Past Weeks' High & Low Weather Summary

 TemperatureHumidityPressure
High50 °F (Dec 21, 9:20 PM)100% (Dec 18, 7:50 PM)29.95 "Hg (Dec 18, 7:50 PM)
Low28 °F (Dec 25, 6:20 AM)52% (Dec 15, 6:20 PM)28.97 "Hg (Dec 11, 2:20 PM)
Average42 °F80%29.34 "Hg
* Reported Dec 10 7:20 AM — Dec 25 7:20 AM, Stavanger, Weather by CustomWeather, © 2014

Note: Actual official high and low records may vary slightly from our data, if they occured in-between our weather recording intervals... More about our weather records

Advertising

Stavanger weather history for previous 24 hours

 ConditionsComfort  
Time TempWeatherWind HumidityBarometerVisibility
7:20 AM
Dec 25
30 °FPassing clouds.2 mph86%29.95 "HgN/A
6:50 AM28 °FPartly cloudy.1 mph93%29.95 "HgN/A
6:20 AM28 °FPartly cloudy.2 mph86%29.92 "HgN/A
5:50 AM30 °FPassing clouds.5 mph86%29.92 "HgN/A
5:20 AM30 °FLight snow. Ice fog.6 mph86%29.89 "Hg3 mi
4:20 AM30 °FLight snow. Ice fog.9 mph86%29.86 "Hg1 mi
3:50 AM32 °FLight snow. Passing clouds.8 mph80%29.83 "HgN/A
2:50 AM32 °FLight snow. Fog.7 mph80%29.80 "Hg3 mi
1:50 AM32 °FPassing clouds.1 mph87%29.74 "HgN/A
12:50 AM32 °FPassing clouds.8 mph87%29.71 "HgN/A
11:50 PM
Dec 24
32 °FPassing clouds.5 mph93%29.68 "HgN/A
11:20 PM32 °FPartly cloudy.7 mph93%29.65 "HgN/A
10:50 PM32 °FLight snow. Passing clouds.8 mph100%29.62 "Hg6 mi
10:20 PM34 °FLight snow. Low clouds.7 mph93%29.62 "Hg2 mi
9:50 PM34 °FSnow. Dense fog.8 mph93%29.62 "Hg1 mi
9:20 PM34 °FSnow. Dense fog.14 mph93%29.59 "Hg1 mi
8:50 PM36 °FLight rain. Partly cloudy.14 mph87%29.56 "HgN/A
8:20 PM37 °FPartly cloudy.17 mph87%29.56 "HgN/A
7:50 PM37 °FPartly cloudy.9 mph93%29.53 "HgN/A
7:20 PM37 °FPassing clouds.8 mph93%29.53 "HgN/A
6:50 PM37 °FPassing clouds.8 mph93%29.53 "HgN/A
6:20 PM37 °FScattered showers. Partly cloudy.8 mph93%29.50 "HgN/A
5:50 PM37 °FSprinkles. Partly cloudy.7 mph93%29.50 "HgN/A
5:20 PM37 °FRain showers. Partly cloudy.7 mph93%29.50 "HgN/A
4:50 PM37 °FRain showers. Partly cloudy.7 mph93%29.50 "HgN/A
4:20 PM37 °FScattered showers. Partly cloudy.8 mph93%29.47 "HgN/A
3:50 PM37 °FScattered showers. Passing clouds.8 mph93%29.47 "HgN/A
3:20 PM37 °FRain showers. Partly sunny.9 mph93%29.47 "HgN/A
2:50 PM37 °FScattered showers. Broken clouds.7 mph93%29.47 "HgN/A
2:20 PM37 °FScattered showers. Partly sunny.6 mph93%29.45 "HgN/A
1:50 PM37 °FScattered showers. Partly sunny.6 mph93%29.45 "HgN/A
1:20 PM37 °FScattered showers. Broken clouds.3 mph93%29.45 "HgN/A
12:50 PM37 °FScattered showers. Broken clouds.3 mph93%29.45 "HgN/A
12:20 PM39 °FScattered showers. Partly sunny.9 mph87%29.45 "HgN/A
11:50 AM37 °FRain showers. Partly sunny.6 mph93%29.45 "HgN/A
11:20 AM37 °FScattered showers. Partly sunny.6 mph93%29.42 "HgN/A
10:50 AM37 °FSprinkles. Partly sunny.7 mph93%29.42 "HgN/A
10:20 AM37 °FSprinkles. Broken clouds.6 mph93%29.42 "HgN/A
9:50 AM39 °FBroken clouds.7 mph87%29.42 "HgN/A
9:20 AM41 °FScattered showers. Partly cloudy.6 mph81%29.42 "HgN/A
8:50 AM41 °FScattered showers. Partly cloudy.12 mph87%29.42 "HgN/A
8:20 AM41 °FScattered showers. Partly cloudy.20 mph87%29.42 "HgN/A
Weather by CustomWeather, © 2014

See weather overviewHow to use our weather pages